Index of /20260502/WXO-DD/model_rdps/10km/18/003
Name Last modified Size Description
Parent Directory -
20260502T18Z_MSC_RDPS_AbsoluteVorticity_IsbL-0250_RLatLon0.09_PT003H.grib2 2026-05-02 20:40 598K
20260502T18Z_MSC_RDPS_AbsoluteVorticity_IsbL-0500_RLatLon0.09_PT003H.grib2 2026-05-02 20:40 555K
20260502T18Z_MSC_RDPS_AbsoluteVorticity_IsbL-0700_RLatLon0.09_PT003H.grib2 2026-05-02 20:40 625K
20260502T18Z_MSC_RDPS_AbsoluteVorticity_IsbL-0850_RLatLon0.09_PT003H.grib2 2026-05-02 20:40 780K
20260502T18Z_MSC_RDPS_AirTemp_AGL-120m_RLatLon0.09_PT003H.grib2 2026-05-02 20:40 389K
20260502T18Z_MSC_RDPS_AirTemp_AGL-2m_RLatLon0.09_PT003H.grib2 2026-05-02 20:40 621K
20260502T18Z_MSC_RDPS_AirTemp_AGL-40m_RLatLon0.09_PT003H.grib2 2026-05-02 20:40 397K
20260502T18Z_MSC_RDPS_AirTemp_AGL-80m_RLatLon0.09_PT003H.grib2 2026-05-02 20:40 392K
20260502T18Z_MSC_RDPS_AirTemp_IsbL-0001_RLatLon0.09_PT003H.grib2 2026-05-02 20:40 266K
20260502T18Z_MSC_RDPS_AirTemp_IsbL-0005_RLatLon0.09_PT003H.grib2 2026-05-02 20:40 275K
20260502T18Z_MSC_RDPS_AirTemp_IsbL-0010_RLatLon0.09_PT003H.grib2 2026-05-02 20:40 283K
20260502T18Z_MSC_RDPS_AirTemp_IsbL-0020_RLatLon0.09_PT003H.grib2 2026-05-02 20:40 387K
20260502T18Z_MSC_RDPS_AirTemp_IsbL-0030_RLatLon0.09_PT003H.grib2 2026-05-02 20:40 316K
20260502T18Z_MSC_RDPS_AirTemp_IsbL-0050_RLatLon0.09_PT003H.grib2 2026-05-02 20:40 297K
20260502T18Z_MSC_RDPS_AirTemp_IsbL-0100_RLatLon0.09_PT003H.grib2 2026-05-02 20:40 372K
20260502T18Z_MSC_RDPS_AirTemp_IsbL-0150_RLatLon0.09_PT003H.grib2 2026-05-02 20:40 405K
20260502T18Z_MSC_RDPS_AirTemp_IsbL-0175_RLatLon0.09_PT003H.grib2 2026-05-02 20:40 400K
20260502T18Z_MSC_RDPS_AirTemp_IsbL-0200_RLatLon0.09_PT003H.grib2 2026-05-02 20:40 407K
20260502T18Z_MSC_RDPS_AirTemp_IsbL-0225_RLatLon0.09_PT003H.grib2 2026-05-02 20:40 406K
20260502T18Z_MSC_RDPS_AirTemp_IsbL-0250_RLatLon0.09_PT003H.grib2 2026-05-02 20:40 412K
20260502T18Z_MSC_RDPS_AirTemp_IsbL-0275_RLatLon0.09_PT003H.grib2 2026-05-02 20:40 397K
20260502T18Z_MSC_RDPS_AirTemp_IsbL-0300_RLatLon0.09_PT003H.grib2 2026-05-02 20:40 430K
20260502T18Z_MSC_RDPS_AirTemp_IsbL-0350_RLatLon0.09_PT003H.grib2 2026-05-02 20:40 421K
20260502T18Z_MSC_RDPS_AirTemp_IsbL-0400_RLatLon0.09_PT003H.grib2 2026-05-02 20:40 388K
20260502T18Z_MSC_RDPS_AirTemp_IsbL-0450_RLatLon0.09_PT003H.grib2 2026-05-02 20:40 395K
20260502T18Z_MSC_RDPS_AirTemp_IsbL-0500_RLatLon0.09_PT003H.grib2 2026-05-02 20:40 408K
20260502T18Z_MSC_RDPS_AirTemp_IsbL-0550_RLatLon0.09_PT003H.grib2 2026-05-02 20:40 426K
20260502T18Z_MSC_RDPS_AirTemp_IsbL-0600_RLatLon0.09_PT003H.grib2 2026-05-02 20:40 448K
20260502T18Z_MSC_RDPS_AirTemp_IsbL-0650_RLatLon0.09_PT003H.grib2 2026-05-02 20:40 466K
20260502T18Z_MSC_RDPS_AirTemp_IsbL-0700_RLatLon0.09_PT003H.grib2 2026-05-02 20:40 386K
20260502T18Z_MSC_RDPS_AirTemp_IsbL-0750_RLatLon0.09_PT003H.grib2 2026-05-02 20:40 416K
20260502T18Z_MSC_RDPS_AirTemp_IsbL-0800_RLatLon0.09_PT003H.grib2 2026-05-02 20:40 453K
20260502T18Z_MSC_RDPS_AirTemp_IsbL-0850_RLatLon0.09_PT003H.grib2 2026-05-02 20:40 496K
20260502T18Z_MSC_RDPS_AirTemp_IsbL-0875_RLatLon0.09_PT003H.grib2 2026-05-02 20:40 514K
20260502T18Z_MSC_RDPS_AirTemp_IsbL-0900_RLatLon0.09_PT003H.grib2 2026-05-02 20:40 521K
20260502T18Z_MSC_RDPS_AirTemp_IsbL-0925_RLatLon0.09_PT003H.grib2 2026-05-02 20:40 518K
20260502T18Z_MSC_RDPS_AirTemp_IsbL-0950_RLatLon0.09_PT003H.grib2 2026-05-02 20:40 522K
20260502T18Z_MSC_RDPS_AirTemp_IsbL-0970_RLatLon0.09_PT003H.grib2 2026-05-02 20:40 519K
20260502T18Z_MSC_RDPS_AirTemp_IsbL-0985_RLatLon0.09_PT003H.grib2 2026-05-02 20:40 509K
20260502T18Z_MSC_RDPS_AirTemp_IsbL-1000_RLatLon0.09_PT003H.grib2 2026-05-02 20:40 494K
20260502T18Z_MSC_RDPS_AirTemp_IsbL-1015_RLatLon0.09_PT003H.grib2 2026-05-02 20:40 491K
20260502T18Z_MSC_RDPS_Albedo_Sfc_RLatLon0.09_PT003H.grib2 2026-05-02 20:40 162K
20260502T18Z_MSC_RDPS_CAPE_Sfc_RLatLon0.09_PT003H.grib2 2026-05-02 20:40 1.7M
20260502T18Z_MSC_RDPS_CIN_Sfc_RLatLon0.09_PT003H.grib2 2026-05-02 20:40 1.2M
20260502T18Z_MSC_RDPS_CloudWater_EAtm_RLatLon0.09_PT003H.grib2 2026-05-02 20:40 219K
20260502T18Z_MSC_RDPS_ConvectivePrecip-Accum_Sfc_RLatLon0.09_PT003H.grib2 2026-05-02 20:40 416K
20260502T18Z_MSC_RDPS_DewPointDepression_AGL-2m_RLatLon0.09_PT003H.grib2 2026-05-02 20:40 415K
20260502T18Z_MSC_RDPS_DewPointDepression_IsbL-0001_RLatLon0.09_PT003H.grib2 2026-05-02 20:40 193
20260502T18Z_MSC_RDPS_DewPointDepression_IsbL-0005_RLatLon0.09_PT003H.grib2 2026-05-02 20:40 193
20260502T18Z_MSC_RDPS_DewPointDepression_IsbL-0010_RLatLon0.09_PT003H.grib2 2026-05-02 20:40 193
20260502T18Z_MSC_RDPS_DewPointDepression_IsbL-0020_RLatLon0.09_PT003H.grib2 2026-05-02 20:40 193
20260502T18Z_MSC_RDPS_DewPointDepression_IsbL-0030_RLatLon0.09_PT003H.grib2 2026-05-02 20:40 193
20260502T18Z_MSC_RDPS_DewPointDepression_IsbL-0050_RLatLon0.09_PT003H.grib2 2026-05-02 20:40 75K
20260502T18Z_MSC_RDPS_DewPointDepression_IsbL-0100_RLatLon0.09_PT003H.grib2 2026-05-02 20:40 118K
20260502T18Z_MSC_RDPS_DewPointDepression_IsbL-0150_RLatLon0.09_PT003H.grib2 2026-05-02 20:40 152K
20260502T18Z_MSC_RDPS_DewPointDepression_IsbL-0175_RLatLon0.09_PT003H.grib2 2026-05-02 20:40 190K
20260502T18Z_MSC_RDPS_DewPointDepression_IsbL-0200_RLatLon0.09_PT003H.grib2 2026-05-02 20:40 223K
20260502T18Z_MSC_RDPS_DewPointDepression_IsbL-0225_RLatLon0.09_PT003H.grib2 2026-05-02 20:40 259K
20260502T18Z_MSC_RDPS_DewPointDepression_IsbL-0250_RLatLon0.09_PT003H.grib2 2026-05-02 20:40 295K
20260502T18Z_MSC_RDPS_DewPointDepression_IsbL-0275_RLatLon0.09_PT003H.grib2 2026-05-02 20:40 305K
20260502T18Z_MSC_RDPS_DewPointDepression_IsbL-0300_RLatLon0.09_PT003H.grib2 2026-05-02 20:40 322K
20260502T18Z_MSC_RDPS_DewPointDepression_IsbL-0350_RLatLon0.09_PT003H.grib2 2026-05-02 20:40 328K
20260502T18Z_MSC_RDPS_DewPointDepression_IsbL-0400_RLatLon0.09_PT003H.grib2 2026-05-02 20:40 336K
20260502T18Z_MSC_RDPS_DewPointDepression_IsbL-0450_RLatLon0.09_PT003H.grib2 2026-05-02 20:40 339K
20260502T18Z_MSC_RDPS_DewPointDepression_IsbL-0500_RLatLon0.09_PT003H.grib2 2026-05-02 20:40 347K
20260502T18Z_MSC_RDPS_DewPointDepression_IsbL-0550_RLatLon0.09_PT003H.grib2 2026-05-02 20:40 362K
20260502T18Z_MSC_RDPS_DewPointDepression_IsbL-0600_RLatLon0.09_PT003H.grib2 2026-05-02 20:40 374K
20260502T18Z_MSC_RDPS_DewPointDepression_IsbL-0650_RLatLon0.09_PT003H.grib2 2026-05-02 20:40 384K
20260502T18Z_MSC_RDPS_DewPointDepression_IsbL-0700_RLatLon0.09_PT003H.grib2 2026-05-02 20:40 398K
20260502T18Z_MSC_RDPS_DewPointDepression_IsbL-0750_RLatLon0.09_PT003H.grib2 2026-05-02 20:40 415K
20260502T18Z_MSC_RDPS_DewPointDepression_IsbL-0800_RLatLon0.09_PT003H.grib2 2026-05-02 20:40 442K
20260502T18Z_MSC_RDPS_DewPointDepression_IsbL-0850_RLatLon0.09_PT003H.grib2 2026-05-02 20:40 466K
20260502T18Z_MSC_RDPS_DewPointDepression_IsbL-0875_RLatLon0.09_PT003H.grib2 2026-05-02 20:40 467K
20260502T18Z_MSC_RDPS_DewPointDepression_IsbL-0900_RLatLon0.09_PT003H.grib2 2026-05-02 20:40 457K
20260502T18Z_MSC_RDPS_DewPointDepression_IsbL-0925_RLatLon0.09_PT003H.grib2 2026-05-02 20:40 443K
20260502T18Z_MSC_RDPS_DewPointDepression_IsbL-0950_RLatLon0.09_PT003H.grib2 2026-05-02 20:40 440K
20260502T18Z_MSC_RDPS_DewPointDepression_IsbL-0970_RLatLon0.09_PT003H.grib2 2026-05-02 20:40 434K
20260502T18Z_MSC_RDPS_DewPointDepression_IsbL-0985_RLatLon0.09_PT003H.grib2 2026-05-02 20:40 429K
20260502T18Z_MSC_RDPS_DewPointDepression_IsbL-1000_RLatLon0.09_PT003H.grib2 2026-05-02 20:40 423K
20260502T18Z_MSC_RDPS_DewPointDepression_IsbL-1015_RLatLon0.09_PT003H.grib2 2026-05-02 20:40 415K
20260502T18Z_MSC_RDPS_DewPoint_AGL-2m_RLatLon0.09_PT003H.grib2 2026-05-02 20:40 393K
20260502T18Z_MSC_RDPS_DownwardLongwaveRadiationFlux-Accum_Sfc_RLatLon0.09_PT003H.grib2 2026-05-02 20:40 568K
20260502T18Z_MSC_RDPS_DownwardShortwaveRadiationFlux-Accum_NTAtm_RLatLon0.09_PT003H.grib2 2026-05-02 20:40 121K
20260502T18Z_MSC_RDPS_DownwardShortwaveRadiationFlux-Accum_Sfc_RLatLon0.09_PT003H.grib2 2026-05-02 20:40 528K
20260502T18Z_MSC_RDPS_FreezingRain-Accum1h_Sfc_RLatLon0.09_PT003H.grib2 2026-05-02 20:40 13K
20260502T18Z_MSC_RDPS_FreezingRain-Accum3h_Sfc_RLatLon0.09_PT003H.grib2 2026-05-02 20:40 14K
20260502T18Z_MSC_RDPS_FreezingRain-Accum_Sfc_RLatLon0.09_PT003H.grib2 2026-05-02 20:40 16K
20260502T18Z_MSC_RDPS_GeopotentialHeight_IsbL-0001_RLatLon0.09_PT003H.grib2 2026-05-02 20:40 317K
20260502T18Z_MSC_RDPS_GeopotentialHeight_IsbL-0005_RLatLon0.09_PT003H.grib2 2026-05-02 20:40 336K
20260502T18Z_MSC_RDPS_GeopotentialHeight_IsbL-0010_RLatLon0.09_PT003H.grib2 2026-05-02 20:40 304K
20260502T18Z_MSC_RDPS_GeopotentialHeight_IsbL-0020_RLatLon0.09_PT003H.grib2 2026-05-02 20:40 303K
20260502T18Z_MSC_RDPS_GeopotentialHeight_IsbL-0030_RLatLon0.09_PT003H.grib2 2026-05-02 20:40 305K
20260502T18Z_MSC_RDPS_GeopotentialHeight_IsbL-0050_RLatLon0.09_PT003H.grib2 2026-05-02 20:40 339K
20260502T18Z_MSC_RDPS_GeopotentialHeight_IsbL-0100_RLatLon0.09_PT003H.grib2 2026-05-02 20:40 284K
20260502T18Z_MSC_RDPS_GeopotentialHeight_IsbL-0150_RLatLon0.09_PT003H.grib2 2026-05-02 20:40 230K
20260502T18Z_MSC_RDPS_GeopotentialHeight_IsbL-0175_RLatLon0.09_PT003H.grib2 2026-05-02 20:40 263K
20260502T18Z_MSC_RDPS_GeopotentialHeight_IsbL-0200_RLatLon0.09_PT003H.grib2 2026-05-02 20:40 266K
20260502T18Z_MSC_RDPS_GeopotentialHeight_IsbL-0225_RLatLon0.09_PT003H.grib2 2026-05-02 20:40 267K
20260502T18Z_MSC_RDPS_GeopotentialHeight_IsbL-0250_RLatLon0.09_PT003H.grib2 2026-05-02 20:40 268K
20260502T18Z_MSC_RDPS_GeopotentialHeight_IsbL-0275_RLatLon0.09_PT003H.grib2 2026-05-02 20:40 266K
20260502T18Z_MSC_RDPS_GeopotentialHeight_IsbL-0300_RLatLon0.09_PT003H.grib2 2026-05-02 20:40 265K
20260502T18Z_MSC_RDPS_GeopotentialHeight_IsbL-0350_RLatLon0.09_PT003H.grib2 2026-05-02 20:40 231K
20260502T18Z_MSC_RDPS_GeopotentialHeight_IsbL-0400_RLatLon0.09_PT003H.grib2 2026-05-02 20:40 229K
20260502T18Z_MSC_RDPS_GeopotentialHeight_IsbL-0450_RLatLon0.09_PT003H.grib2 2026-05-02 20:40 298K
20260502T18Z_MSC_RDPS_GeopotentialHeight_IsbL-0500_RLatLon0.09_PT003H.grib2 2026-05-02 20:40 294K
20260502T18Z_MSC_RDPS_GeopotentialHeight_IsbL-0550_RLatLon0.09_PT003H.grib2 2026-05-02 20:40 291K
20260502T18Z_MSC_RDPS_GeopotentialHeight_IsbL-0600_RLatLon0.09_PT003H.grib2 2026-05-02 20:40 287K
20260502T18Z_MSC_RDPS_GeopotentialHeight_IsbL-0650_RLatLon0.09_PT003H.grib2 2026-05-02 20:40 259K
20260502T18Z_MSC_RDPS_GeopotentialHeight_IsbL-0700_RLatLon0.09_PT003H.grib2 2026-05-02 20:40 259K
20260502T18Z_MSC_RDPS_GeopotentialHeight_IsbL-0750_RLatLon0.09_PT003H.grib2 2026-05-02 20:40 344K
20260502T18Z_MSC_RDPS_GeopotentialHeight_IsbL-0800_RLatLon0.09_PT003H.grib2 2026-05-02 20:40 350K
20260502T18Z_MSC_RDPS_GeopotentialHeight_IsbL-0850_RLatLon0.09_PT003H.grib2 2026-05-02 20:40 355K
20260502T18Z_MSC_RDPS_GeopotentialHeight_IsbL-0875_RLatLon0.09_PT003H.grib2 2026-05-02 20:40 358K
20260502T18Z_MSC_RDPS_GeopotentialHeight_IsbL-0900_RLatLon0.09_PT003H.grib2 2026-05-02 20:40 362K
20260502T18Z_MSC_RDPS_GeopotentialHeight_IsbL-0925_RLatLon0.09_PT003H.grib2 2026-05-02 20:40 366K
20260502T18Z_MSC_RDPS_GeopotentialHeight_IsbL-0950_RLatLon0.09_PT003H.grib2 2026-05-02 20:40 369K
20260502T18Z_MSC_RDPS_GeopotentialHeight_IsbL-0970_RLatLon0.09_PT003H.grib2 2026-05-02 20:40 377K
20260502T18Z_MSC_RDPS_GeopotentialHeight_IsbL-0985_RLatLon0.09_PT003H.grib2 2026-05-02 20:40 386K
20260502T18Z_MSC_RDPS_GeopotentialHeight_IsbL-1000_RLatLon0.09_PT003H.grib2 2026-05-02 20:40 398K
20260502T18Z_MSC_RDPS_GeopotentialHeight_IsbL-1015_RLatLon0.09_PT003H.grib2 2026-05-02 20:40 412K
20260502T18Z_MSC_RDPS_Humidex_Sfc_RLatLon0.09_PT003H.grib2 2026-05-02 20:40 2.4M
20260502T18Z_MSC_RDPS_IcePellets-Accum1h_Sfc_RLatLon0.09_PT003H.grib2 2026-05-02 20:40 6.1K
20260502T18Z_MSC_RDPS_IcePellets-Accum3h_Sfc_RLatLon0.09_PT003H.grib2 2026-05-02 20:40 7.0K
20260502T18Z_MSC_RDPS_IcePellets-Accum_Sfc_RLatLon0.09_PT003H.grib2 2026-05-02 20:40 8.1K
20260502T18Z_MSC_RDPS_KIndex_Sfc_RLatLon0.09_PT003H.grib2 2026-05-02 20:40 2.3M
20260502T18Z_MSC_RDPS_LatentHeatNetFlux_Sfc_RLatLon0.09_PT003H.grib2 2026-05-02 20:40 302K
20260502T18Z_MSC_RDPS_LiftedIndex-MU-VT_IsbL-0500_RLatLon0.09_PT003H.grib2 2026-05-02 20:40 2.4M
20260502T18Z_MSC_RDPS_NetLongwaveRadiationFlux-Accum_Sfc_RLatLon0.09_PT003H.grib2 2026-05-02 20:40 600K
20260502T18Z_MSC_RDPS_NetShortwaveRadiationFlux-Accum_Sfc_RLatLon0.09_PT003H.grib2 2026-05-02 20:40 516K
20260502T18Z_MSC_RDPS_PlanetaryBoundaryLayerHeight_Sfc_RLatLon0.09_PT003H.grib2 2026-05-02 20:40 1.0M
20260502T18Z_MSC_RDPS_Precip-Accum1h_Sfc_RLatLon0.09_PT003H.grib2 2026-05-02 20:40 1.2M
20260502T18Z_MSC_RDPS_Precip-Accum3h_Sfc_RLatLon0.09_PT003H.grib2 2026-05-02 20:40 1.3M
20260502T18Z_MSC_RDPS_Precip-Accum_Sfc_RLatLon0.09_PT003H.grib2 2026-05-02 20:40 1.3M
20260502T18Z_MSC_RDPS_PrecipRate_Sfc_RLatLon0.09_PT003H.grib2 2026-05-02 20:40 136K
20260502T18Z_MSC_RDPS_PrecipType-Instant_Sfc_RLatLon0.09_PT003H.grib2 2026-05-02 20:40 596K
20260502T18Z_MSC_RDPS_Pressure-Trend3h_Sfc_RLatLon0.09_PT003H.grib2 2026-05-02 20:40 1.2M
20260502T18Z_MSC_RDPS_Pressure_MSL_RLatLon0.09_PT003H.grib2 2026-05-02 20:40 329K
20260502T18Z_MSC_RDPS_Pressure_PVU-1.5_RLatLon0.09_PT003H.grib2 2026-05-02 20:40 2.4M
20260502T18Z_MSC_RDPS_Pressure_PVU-1_RLatLon0.09_PT003H.grib2 2026-05-02 20:40 2.4M
20260502T18Z_MSC_RDPS_Pressure_PVU-2_RLatLon0.09_PT003H.grib2 2026-05-02 20:40 2.4M
20260502T18Z_MSC_RDPS_Pressure_Sfc_RLatLon0.09_PT003H.grib2 2026-05-02 20:40 499K
20260502T18Z_MSC_RDPS_RadiativeTemp_Sfc_RLatLon0.09_PT003H.grib2 2026-05-02 20:40 324K
20260502T18Z_MSC_RDPS_Rain-Accum1h_Sfc_RLatLon0.09_PT003H.grib2 2026-05-02 20:40 538K
20260502T18Z_MSC_RDPS_Rain-Accum3h_Sfc_RLatLon0.09_PT003H.grib2 2026-05-02 20:40 687K
20260502T18Z_MSC_RDPS_Rain-Accum_Sfc_RLatLon0.09_PT003H.grib2 2026-05-02 20:40 953K
20260502T18Z_MSC_RDPS_RelativeHumidity_AGL-2m_RLatLon0.09_PT003H.grib2 2026-05-02 20:40 1.0M
20260502T18Z_MSC_RDPS_RelativeHumidity_IsbL-0010_RLatLon0.09_PT003H.grib2 2026-05-02 20:40 626K
20260502T18Z_MSC_RDPS_RelativeHumidity_IsbL-0020_RLatLon0.09_PT003H.grib2 2026-05-02 20:40 669K
20260502T18Z_MSC_RDPS_RelativeHumidity_IsbL-0030_RLatLon0.09_PT003H.grib2 2026-05-02 20:40 596K
20260502T18Z_MSC_RDPS_RelativeHumidity_IsbL-0050_RLatLon0.09_PT003H.grib2 2026-05-02 20:40 301K
20260502T18Z_MSC_RDPS_RelativeHumidity_IsbL-0100_RLatLon0.09_PT003H.grib2 2026-05-02 20:40 269K
20260502T18Z_MSC_RDPS_RelativeHumidity_IsbL-0150_RLatLon0.09_PT003H.grib2 2026-05-02 20:40 406K
20260502T18Z_MSC_RDPS_RelativeHumidity_IsbL-0175_RLatLon0.09_PT003H.grib2 2026-05-02 20:40 472K
20260502T18Z_MSC_RDPS_RelativeHumidity_IsbL-0200_RLatLon0.09_PT003H.grib2 2026-05-02 20:40 545K
20260502T18Z_MSC_RDPS_RelativeHumidity_IsbL-0225_RLatLon0.09_PT003H.grib2 2026-05-02 20:40 606K
20260502T18Z_MSC_RDPS_RelativeHumidity_IsbL-0250_RLatLon0.09_PT003H.grib2 2026-05-02 20:40 669K
20260502T18Z_MSC_RDPS_RelativeHumidity_IsbL-0275_RLatLon0.09_PT003H.grib2 2026-05-02 20:40 694K
20260502T18Z_MSC_RDPS_RelativeHumidity_IsbL-0300_RLatLon0.09_PT003H.grib2 2026-05-02 20:40 733K
20260502T18Z_MSC_RDPS_RelativeHumidity_IsbL-0350_RLatLon0.09_PT003H.grib2 2026-05-02 20:40 758K
20260502T18Z_MSC_RDPS_RelativeHumidity_IsbL-0400_RLatLon0.09_PT003H.grib2 2026-05-02 20:40 769K
20260502T18Z_MSC_RDPS_RelativeHumidity_IsbL-0450_RLatLon0.09_PT003H.grib2 2026-05-02 20:40 771K
20260502T18Z_MSC_RDPS_RelativeHumidity_IsbL-0500_RLatLon0.09_PT003H.grib2 2026-05-02 20:40 790K
20260502T18Z_MSC_RDPS_RelativeHumidity_IsbL-0550_RLatLon0.09_PT003H.grib2 2026-05-02 20:40 813K
20260502T18Z_MSC_RDPS_RelativeHumidity_IsbL-0600_RLatLon0.09_PT003H.grib2 2026-05-02 20:40 839K
20260502T18Z_MSC_RDPS_RelativeHumidity_IsbL-0650_RLatLon0.09_PT003H.grib2 2026-05-02 20:40 858K
20260502T18Z_MSC_RDPS_RelativeHumidity_IsbL-0700_RLatLon0.09_PT003H.grib2 2026-05-02 20:40 887K
20260502T18Z_MSC_RDPS_RelativeHumidity_IsbL-0750_RLatLon0.09_PT003H.grib2 2026-05-02 20:40 930K
20260502T18Z_MSC_RDPS_RelativeHumidity_IsbL-0800_RLatLon0.09_PT003H.grib2 2026-05-02 20:40 1.0M
20260502T18Z_MSC_RDPS_RelativeHumidity_IsbL-0850_RLatLon0.09_PT003H.grib2 2026-05-02 20:40 1.0M
20260502T18Z_MSC_RDPS_RelativeHumidity_IsbL-0875_RLatLon0.09_PT003H.grib2 2026-05-02 20:40 1.0M
20260502T18Z_MSC_RDPS_RelativeHumidity_IsbL-0900_RLatLon0.09_PT003H.grib2 2026-05-02 20:40 1.1M
20260502T18Z_MSC_RDPS_RelativeHumidity_IsbL-0925_RLatLon0.09_PT003H.grib2 2026-05-02 20:40 1.0M
20260502T18Z_MSC_RDPS_RelativeHumidity_IsbL-0950_RLatLon0.09_PT003H.grib2 2026-05-02 20:40 1.0M
20260502T18Z_MSC_RDPS_RelativeHumidity_IsbL-0970_RLatLon0.09_PT003H.grib2 2026-05-02 20:40 1.0M
20260502T18Z_MSC_RDPS_RelativeHumidity_IsbL-0985_RLatLon0.09_PT003H.grib2 2026-05-02 20:40 1.0M
20260502T18Z_MSC_RDPS_RelativeHumidity_IsbL-1000_RLatLon0.09_PT003H.grib2 2026-05-02 20:40 1.0M
20260502T18Z_MSC_RDPS_RelativeHumidity_IsbL-1015_RLatLon0.09_PT003H.grib2 2026-05-02 20:40 1.0M
20260502T18Z_MSC_RDPS_Runoff-Accum_Sfc_RLatLon0.09_PT003H.grib2 2026-05-02 20:40 49K
20260502T18Z_MSC_RDPS_SWEATIndex_Sfc_RLatLon0.09_PT003H.grib2 2026-05-02 20:40 2.4M
20260502T18Z_MSC_RDPS_SeeingIndex_EAtm_RLatLon0.09_PT003H.grib2 2026-05-02 20:40 1.0M
20260502T18Z_MSC_RDPS_SensibleHeatNetFlux_Sfc_RLatLon0.09_PT003H.grib2 2026-05-02 20:40 273K
20260502T18Z_MSC_RDPS_ShowalterIndex_IsbL-0500_RLatLon0.09_PT003H.grib2 2026-05-02 20:40 2.6M
20260502T18Z_MSC_RDPS_SkyTransparencyIndex_EAtm_RLatLon0.09_PT003H.grib2 2026-05-02 20:40 710K
20260502T18Z_MSC_RDPS_Snow-Accum1h_Sfc_RLatLon0.09_PT003H.grib2 2026-05-02 20:40 426K
20260502T18Z_MSC_RDPS_Snow-Accum3h_Sfc_RLatLon0.09_PT003H.grib2 2026-05-02 20:40 431K
20260502T18Z_MSC_RDPS_Snow-Accum_Sfc_RLatLon0.09_PT003H.grib2 2026-05-02 20:40 552K
20260502T18Z_MSC_RDPS_SnowDensity_Sfc_RLatLon0.09_PT003H.grib2 2026-05-02 20:40 164K
20260502T18Z_MSC_RDPS_SnowDepth_Sfc_RLatLon0.09_PT003H.grib2 2026-05-02 20:40 651K
20260502T18Z_MSC_RDPS_SoilTemp_DBS-0to10cm_RLatLon0.09_PT003H.grib2 2026-05-02 20:40 200K
20260502T18Z_MSC_RDPS_SoilTemp_Sfc_RLatLon0.09_PT003H.grib2 2026-05-02 20:40 288K
20260502T18Z_MSC_RDPS_SoilVolumetricIceContent_Sfc_RLatLon0.09_PT003H.grib2 2026-05-02 20:40 159K
20260502T18Z_MSC_RDPS_SoilVolumetricWaterContent_DBS-0to10cm_RLatLon0.09_PT003H.grib2 2026-05-02 20:40 272K
20260502T18Z_MSC_RDPS_SoilVolumetricWaterContent_DBS-0to1cm_RLatLon0.09_PT003H.grib2 2026-05-02 20:40 335K
20260502T18Z_MSC_RDPS_SpecificHumidity_AGL-120m_RLatLon0.09_PT003H.grib2 2026-05-02 20:40 488K
20260502T18Z_MSC_RDPS_SpecificHumidity_AGL-2m_RLatLon0.09_PT003H.grib2 2026-05-02 20:40 653K
20260502T18Z_MSC_RDPS_SpecificHumidity_AGL-40m_RLatLon0.09_PT003H.grib2 2026-05-02 20:40 492K
20260502T18Z_MSC_RDPS_SpecificHumidity_AGL-80m_RLatLon0.09_PT003H.grib2 2026-05-02 20:40 489K
20260502T18Z_MSC_RDPS_SpecificHumidity_IsbL-0001_RLatLon0.09_PT003H.grib2 2026-05-02 20:40 360K
20260502T18Z_MSC_RDPS_SpecificHumidity_IsbL-0005_RLatLon0.09_PT003H.grib2 2026-05-02 20:40 357K
20260502T18Z_MSC_RDPS_SpecificHumidity_IsbL-0010_RLatLon0.09_PT003H.grib2 2026-05-02 20:40 388K
20260502T18Z_MSC_RDPS_SpecificHumidity_IsbL-0020_RLatLon0.09_PT003H.grib2 2026-05-02 20:40 375K
20260502T18Z_MSC_RDPS_SpecificHumidity_IsbL-0030_RLatLon0.09_PT003H.grib2 2026-05-02 20:40 369K
20260502T18Z_MSC_RDPS_SpecificHumidity_IsbL-0050_RLatLon0.09_PT003H.grib2 2026-05-02 20:40 454K
20260502T18Z_MSC_RDPS_SpecificHumidity_IsbL-0100_RLatLon0.09_PT003H.grib2 2026-05-02 20:40 409K
20260502T18Z_MSC_RDPS_SpecificHumidity_IsbL-0150_RLatLon0.09_PT003H.grib2 2026-05-02 20:40 446K
20260502T18Z_MSC_RDPS_SpecificHumidity_IsbL-0175_RLatLon0.09_PT003H.grib2 2026-05-02 20:40 435K
20260502T18Z_MSC_RDPS_SpecificHumidity_IsbL-0200_RLatLon0.09_PT003H.grib2 2026-05-02 20:40 447K
20260502T18Z_MSC_RDPS_SpecificHumidity_IsbL-0225_RLatLon0.09_PT003H.grib2 2026-05-02 20:40 448K
20260502T18Z_MSC_RDPS_SpecificHumidity_IsbL-0250_RLatLon0.09_PT003H.grib2 2026-05-02 20:40 508K
20260502T18Z_MSC_RDPS_SpecificHumidity_IsbL-0275_RLatLon0.09_PT003H.grib2 2026-05-02 20:40 470K
20260502T18Z_MSC_RDPS_SpecificHumidity_IsbL-0300_RLatLon0.09_PT003H.grib2 2026-05-02 20:40 443K
20260502T18Z_MSC_RDPS_SpecificHumidity_IsbL-0350_RLatLon0.09_PT003H.grib2 2026-05-02 20:40 438K
20260502T18Z_MSC_RDPS_SpecificHumidity_IsbL-0400_RLatLon0.09_PT003H.grib2 2026-05-02 20:40 513K
20260502T18Z_MSC_RDPS_SpecificHumidity_IsbL-0450_RLatLon0.09_PT003H.grib2 2026-05-02 20:40 447K
20260502T18Z_MSC_RDPS_SpecificHumidity_IsbL-0500_RLatLon0.09_PT003H.grib2 2026-05-02 20:40 496K
20260502T18Z_MSC_RDPS_SpecificHumidity_IsbL-0550_RLatLon0.09_PT003H.grib2 2026-05-02 20:40 572K
20260502T18Z_MSC_RDPS_SpecificHumidity_IsbL-0600_RLatLon0.09_PT003H.grib2 2026-05-02 20:40 628K
20260502T18Z_MSC_RDPS_SpecificHumidity_IsbL-0650_RLatLon0.09_PT003H.grib2 2026-05-02 20:40 551K
20260502T18Z_MSC_RDPS_SpecificHumidity_IsbL-0700_RLatLon0.09_PT003H.grib2 2026-05-02 20:40 599K
20260502T18Z_MSC_RDPS_SpecificHumidity_IsbL-0750_RLatLon0.09_PT003H.grib2 2026-05-02 20:40 655K
20260502T18Z_MSC_RDPS_SpecificHumidity_IsbL-0800_RLatLon0.09_PT003H.grib2 2026-05-02 20:40 734K
20260502T18Z_MSC_RDPS_SpecificHumidity_IsbL-0850_RLatLon0.09_PT003H.grib2 2026-05-02 20:40 802K
20260502T18Z_MSC_RDPS_SpecificHumidity_IsbL-0875_RLatLon0.09_PT003H.grib2 2026-05-02 20:40 827K
20260502T18Z_MSC_RDPS_SpecificHumidity_IsbL-0900_RLatLon0.09_PT003H.grib2 2026-05-02 20:40 701K
20260502T18Z_MSC_RDPS_SpecificHumidity_IsbL-0925_RLatLon0.09_PT003H.grib2 2026-05-02 20:40 700K
20260502T18Z_MSC_RDPS_SpecificHumidity_IsbL-0950_RLatLon0.09_PT003H.grib2 2026-05-02 20:40 705K
20260502T18Z_MSC_RDPS_SpecificHumidity_IsbL-0970_RLatLon0.09_PT003H.grib2 2026-05-02 20:40 696K
20260502T18Z_MSC_RDPS_SpecificHumidity_IsbL-0985_RLatLon0.09_PT003H.grib2 2026-05-02 20:40 688K
20260502T18Z_MSC_RDPS_SpecificHumidity_IsbL-1000_RLatLon0.09_PT003H.grib2 2026-05-02 20:40 682K
20260502T18Z_MSC_RDPS_SpecificHumidity_IsbL-1015_RLatLon0.09_PT003H.grib2 2026-05-02 20:40 669K
20260502T18Z_MSC_RDPS_SpecificHumidity_Sfc_RLatLon0.09_PT003H.grib2 2026-05-02 20:40 339K
20260502T18Z_MSC_RDPS_StormRelativeHelicity_EtaL-10000_RLatLon0.09_PT003H.grib2 2026-05-02 20:40 1.1M
20260502T18Z_MSC_RDPS_StormSeverityIndex_EtaL-10000_RLatLon0.09_PT003H.grib2 2026-05-02 20:40 1.2M
20260502T18Z_MSC_RDPS_Thickness_IsbL-0850to0700_RLatLon0.09_PT003H.grib2 2026-05-02 20:40 178K
20260502T18Z_MSC_RDPS_Thickness_IsbL-1000to0500_RLatLon0.09_PT003H.grib2 2026-05-02 20:40 199K
20260502T18Z_MSC_RDPS_Thickness_IsbL-1000to0850_RLatLon0.09_PT003H.grib2 2026-05-02 20:40 188K
20260502T18Z_MSC_RDPS_TotalCloudCover_Sfc_RLatLon0.09_PT003H.grib2 2026-05-02 20:40 648K
20260502T18Z_MSC_RDPS_TotalTotalsIndex_Sfc_RLatLon0.09_PT003H.grib2 2026-05-02 20:40 2.3M
20260502T18Z_MSC_RDPS_UVIndex-ClearSky_Sfc_RLatLon0.09_PT003H.grib2 2026-05-02 20:40 200K
20260502T18Z_MSC_RDPS_UVIndex_Sfc_RLatLon0.09_PT003H.grib2 2026-05-02 20:40 469K
20260502T18Z_MSC_RDPS_UpwardLongwaveRadiationFlux_NTAtm_RLatLon0.09_PT003H.grib2 2026-05-02 20:40 380K
20260502T18Z_MSC_RDPS_UpwardShortwaveRadiationFlux_NTAtm_RLatLon0.09_PT003H.grib2 2026-05-02 20:40 509K
20260502T18Z_MSC_RDPS_VerticalVelocity_IsbL-0250_RLatLon0.09_PT003H.grib2 2026-05-02 20:40 544K
20260502T18Z_MSC_RDPS_VerticalVelocity_IsbL-0500_RLatLon0.09_PT003H.grib2 2026-05-02 20:40 536K
20260502T18Z_MSC_RDPS_VerticalVelocity_IsbL-0700_RLatLon0.09_PT003H.grib2 2026-05-02 20:40 598K
20260502T18Z_MSC_RDPS_VerticalVelocity_IsbL-0850_RLatLon0.09_PT003H.grib2 2026-05-02 20:40 704K
20260502T18Z_MSC_RDPS_VerticalWindShear_EtaL-6500_RLatLon0.09_PT003H.grib2 2026-05-02 20:40 1.2M
20260502T18Z_MSC_RDPS_WindChill_Sfc_RLatLon0.09_PT003H.grib2 2026-05-02 20:40 1.1M
20260502T18Z_MSC_RDPS_WindDir_AGL-10m_RLatLon0.09_PT003H.grib2 2026-05-02 20:40 936K
20260502T18Z_MSC_RDPS_WindDir_AGL-120m_RLatLon0.09_PT003H.grib2 2026-05-02 20:40 588K
20260502T18Z_MSC_RDPS_WindDir_AGL-40m_RLatLon0.09_PT003H.grib2 2026-05-02 20:40 609K
20260502T18Z_MSC_RDPS_WindDir_AGL-80m_RLatLon0.09_PT003H.grib2 2026-05-02 20:40 596K
20260502T18Z_MSC_RDPS_WindDir_IsbL-0001_RLatLon0.09_PT003H.grib2 2026-05-02 20:40 275K
20260502T18Z_MSC_RDPS_WindDir_IsbL-0005_RLatLon0.09_PT003H.grib2 2026-05-02 20:40 346K
20260502T18Z_MSC_RDPS_WindDir_IsbL-0010_RLatLon0.09_PT003H.grib2 2026-05-02 20:40 368K
20260502T18Z_MSC_RDPS_WindDir_IsbL-0020_RLatLon0.09_PT003H.grib2 2026-05-02 20:40 398K
20260502T18Z_MSC_RDPS_WindDir_IsbL-0030_RLatLon0.09_PT003H.grib2 2026-05-02 20:40 393K
20260502T18Z_MSC_RDPS_WindDir_IsbL-0050_RLatLon0.09_PT003H.grib2 2026-05-02 20:40 389K
20260502T18Z_MSC_RDPS_WindDir_IsbL-0100_RLatLon0.09_PT003H.grib2 2026-05-02 20:40 393K
20260502T18Z_MSC_RDPS_WindDir_IsbL-0150_RLatLon0.09_PT003H.grib2 2026-05-02 20:40 398K
20260502T18Z_MSC_RDPS_WindDir_IsbL-0175_RLatLon0.09_PT003H.grib2 2026-05-02 20:40 413K
20260502T18Z_MSC_RDPS_WindDir_IsbL-0200_RLatLon0.09_PT003H.grib2 2026-05-02 20:40 428K
20260502T18Z_MSC_RDPS_WindDir_IsbL-0225_RLatLon0.09_PT003H.grib2 2026-05-02 20:40 434K
20260502T18Z_MSC_RDPS_WindDir_IsbL-0250_RLatLon0.09_PT003H.grib2 2026-05-02 20:40 441K
20260502T18Z_MSC_RDPS_WindDir_IsbL-0275_RLatLon0.09_PT003H.grib2 2026-05-02 20:40 460K
20260502T18Z_MSC_RDPS_WindDir_IsbL-0300_RLatLon0.09_PT003H.grib2 2026-05-02 20:40 463K
20260502T18Z_MSC_RDPS_WindDir_IsbL-0350_RLatLon0.09_PT003H.grib2 2026-05-02 20:40 494K
20260502T18Z_MSC_RDPS_WindDir_IsbL-0400_RLatLon0.09_PT003H.grib2 2026-05-02 20:40 510K
20260502T18Z_MSC_RDPS_WindDir_IsbL-0450_RLatLon0.09_PT003H.grib2 2026-05-02 20:40 520K
20260502T18Z_MSC_RDPS_WindDir_IsbL-0500_RLatLon0.09_PT003H.grib2 2026-05-02 20:40 540K
20260502T18Z_MSC_RDPS_WindDir_IsbL-0550_RLatLon0.09_PT003H.grib2 2026-05-02 20:40 550K
20260502T18Z_MSC_RDPS_WindDir_IsbL-0600_RLatLon0.09_PT003H.grib2 2026-05-02 20:40 575K
20260502T18Z_MSC_RDPS_WindDir_IsbL-0650_RLatLon0.09_PT003H.grib2 2026-05-02 20:40 616K
20260502T18Z_MSC_RDPS_WindDir_IsbL-0700_RLatLon0.09_PT003H.grib2 2026-05-02 20:40 663K
20260502T18Z_MSC_RDPS_WindDir_IsbL-0750_RLatLon0.09_PT003H.grib2 2026-05-02 20:40 716K
20260502T18Z_MSC_RDPS_WindDir_IsbL-0800_RLatLon0.09_PT003H.grib2 2026-05-02 20:40 777K
20260502T18Z_MSC_RDPS_WindDir_IsbL-0850_RLatLon0.09_PT003H.grib2 2026-05-02 20:40 848K
20260502T18Z_MSC_RDPS_WindDir_IsbL-0875_RLatLon0.09_PT003H.grib2 2026-05-02 20:40 874K
20260502T18Z_MSC_RDPS_WindDir_IsbL-0900_RLatLon0.09_PT003H.grib2 2026-05-02 20:40 881K
20260502T18Z_MSC_RDPS_WindDir_IsbL-0925_RLatLon0.09_PT003H.grib2 2026-05-02 20:40 889K
20260502T18Z_MSC_RDPS_WindDir_IsbL-0950_RLatLon0.09_PT003H.grib2 2026-05-02 20:40 886K
20260502T18Z_MSC_RDPS_WindDir_IsbL-0970_RLatLon0.09_PT003H.grib2 2026-05-02 20:40 897K
20260502T18Z_MSC_RDPS_WindDir_IsbL-0985_RLatLon0.09_PT003H.grib2 2026-05-02 20:40 904K
20260502T18Z_MSC_RDPS_WindDir_IsbL-1000_RLatLon0.09_PT003H.grib2 2026-05-02 20:40 916K
20260502T18Z_MSC_RDPS_WindDir_IsbL-1015_RLatLon0.09_PT003H.grib2 2026-05-02 20:40 930K
20260502T18Z_MSC_RDPS_WindGust-Max_AGL-10m_RLatLon0.09_PT003H.grib2 2026-05-02 20:40 943K
20260502T18Z_MSC_RDPS_WindGust-Min_AGL-10m_RLatLon0.09_PT003H.grib2 2026-05-02 20:40 1.0M
20260502T18Z_MSC_RDPS_WindGust_AGL-10m_RLatLon0.09_PT003H.grib2 2026-05-02 20:40 1.0M
20260502T18Z_MSC_RDPS_WindSpeed_AGL-10m_RLatLon0.09_PT003H.grib2 2026-05-02 20:40 828K
20260502T18Z_MSC_RDPS_WindSpeed_AGL-120m_RLatLon0.09_PT003H.grib2 2026-05-02 20:40 528K
20260502T18Z_MSC_RDPS_WindSpeed_AGL-40m_RLatLon0.09_PT003H.grib2 2026-05-02 20:40 531K
20260502T18Z_MSC_RDPS_WindSpeed_AGL-80m_RLatLon0.09_PT003H.grib2 2026-05-02 20:40 528K
20260502T18Z_MSC_RDPS_WindSpeed_IsbL-0001_RLatLon0.09_PT003H.grib2 2026-05-02 20:40 245K
20260502T18Z_MSC_RDPS_WindSpeed_IsbL-0005_RLatLon0.09_PT003H.grib2 2026-05-02 20:40 364K
20260502T18Z_MSC_RDPS_WindSpeed_IsbL-0010_RLatLon0.09_PT003H.grib2 2026-05-02 20:40 376K
20260502T18Z_MSC_RDPS_WindSpeed_IsbL-0020_RLatLon0.09_PT003H.grib2 2026-05-02 20:40 301K
20260502T18Z_MSC_RDPS_WindSpeed_IsbL-0030_RLatLon0.09_PT003H.grib2 2026-05-02 20:40 303K
20260502T18Z_MSC_RDPS_WindSpeed_IsbL-0050_RLatLon0.09_PT003H.grib2 2026-05-02 20:40 330K
20260502T18Z_MSC_RDPS_WindSpeed_IsbL-0100_RLatLon0.09_PT003H.grib2 2026-05-02 20:40 460K
20260502T18Z_MSC_RDPS_WindSpeed_IsbL-0150_RLatLon0.09_PT003H.grib2 2026-05-02 20:40 375K
20260502T18Z_MSC_RDPS_WindSpeed_IsbL-0175_RLatLon0.09_PT003H.grib2 2026-05-02 20:40 420K
20260502T18Z_MSC_RDPS_WindSpeed_IsbL-0200_RLatLon0.09_PT003H.grib2 2026-05-02 20:40 436K
20260502T18Z_MSC_RDPS_WindSpeed_IsbL-0225_RLatLon0.09_PT003H.grib2 2026-05-02 20:40 443K
20260502T18Z_MSC_RDPS_WindSpeed_IsbL-0250_RLatLon0.09_PT003H.grib2 2026-05-02 20:40 446K
20260502T18Z_MSC_RDPS_WindSpeed_IsbL-0275_RLatLon0.09_PT003H.grib2 2026-05-02 20:40 463K
20260502T18Z_MSC_RDPS_WindSpeed_IsbL-0300_RLatLon0.09_PT003H.grib2 2026-05-02 20:40 461K
20260502T18Z_MSC_RDPS_WindSpeed_IsbL-0350_RLatLon0.09_PT003H.grib2 2026-05-02 20:40 472K
20260502T18Z_MSC_RDPS_WindSpeed_IsbL-0400_RLatLon0.09_PT003H.grib2 2026-05-02 20:40 475K
20260502T18Z_MSC_RDPS_WindSpeed_IsbL-0450_RLatLon0.09_PT003H.grib2 2026-05-02 20:40 457K
20260502T18Z_MSC_RDPS_WindSpeed_IsbL-0500_RLatLon0.09_PT003H.grib2 2026-05-02 20:40 457K
20260502T18Z_MSC_RDPS_WindSpeed_IsbL-0550_RLatLon0.09_PT003H.grib2 2026-05-02 20:40 579K
20260502T18Z_MSC_RDPS_WindSpeed_IsbL-0600_RLatLon0.09_PT003H.grib2 2026-05-02 20:40 592K
20260502T18Z_MSC_RDPS_WindSpeed_IsbL-0650_RLatLon0.09_PT003H.grib2 2026-05-02 20:40 655K
20260502T18Z_MSC_RDPS_WindSpeed_IsbL-0700_RLatLon0.09_PT003H.grib2 2026-05-02 20:40 684K
20260502T18Z_MSC_RDPS_WindSpeed_IsbL-0750_RLatLon0.09_PT003H.grib2 2026-05-02 20:40 717K
20260502T18Z_MSC_RDPS_WindSpeed_IsbL-0800_RLatLon0.09_PT003H.grib2 2026-05-02 20:40 761K
20260502T18Z_MSC_RDPS_WindSpeed_IsbL-0850_RLatLon0.09_PT003H.grib2 2026-05-02 20:40 813K
20260502T18Z_MSC_RDPS_WindSpeed_IsbL-0875_RLatLon0.09_PT003H.grib2 2026-05-02 20:40 785K
20260502T18Z_MSC_RDPS_WindSpeed_IsbL-0900_RLatLon0.09_PT003H.grib2 2026-05-02 20:40 841K
20260502T18Z_MSC_RDPS_WindSpeed_IsbL-0925_RLatLon0.09_PT003H.grib2 2026-05-02 20:40 853K
20260502T18Z_MSC_RDPS_WindSpeed_IsbL-0950_RLatLon0.09_PT003H.grib2 2026-05-02 20:40 853K
20260502T18Z_MSC_RDPS_WindSpeed_IsbL-0970_RLatLon0.09_PT003H.grib2 2026-05-02 20:40 851K
20260502T18Z_MSC_RDPS_WindSpeed_IsbL-0985_RLatLon0.09_PT003H.grib2 2026-05-02 20:40 846K
20260502T18Z_MSC_RDPS_WindSpeed_IsbL-1000_RLatLon0.09_PT003H.grib2 2026-05-02 20:40 840K
20260502T18Z_MSC_RDPS_WindSpeed_IsbL-1015_RLatLon0.09_PT003H.grib2 2026-05-02 20:40 829K
20260502T18Z_MSC_RDPS_WindU_AGL-10m_RLatLon0.09_PT003H.grib2 2026-05-02 20:40 429K
20260502T18Z_MSC_RDPS_WindU_AGL-120m_RLatLon0.09_PT003H.grib2 2026-05-02 20:40 528K
20260502T18Z_MSC_RDPS_WindU_AGL-40m_RLatLon0.09_PT003H.grib2 2026-05-02 20:40 530K
20260502T18Z_MSC_RDPS_WindU_AGL-80m_RLatLon0.09_PT003H.grib2 2026-05-02 20:40 529K
20260502T18Z_MSC_RDPS_WindU_IsbL-0001_RLatLon0.09_PT003H.grib2 2026-05-02 20:40 236K
20260502T18Z_MSC_RDPS_WindU_IsbL-0005_RLatLon0.09_PT003H.grib2 2026-05-02 20:40 272K
20260502T18Z_MSC_RDPS_WindU_IsbL-0010_RLatLon0.09_PT003H.grib2 2026-05-02 20:40 279K
20260502T18Z_MSC_RDPS_WindU_IsbL-0020_RLatLon0.09_PT003H.grib2 2026-05-02 20:40 335K
20260502T18Z_MSC_RDPS_WindU_IsbL-0030_RLatLon0.09_PT003H.grib2 2026-05-02 20:40 337K
20260502T18Z_MSC_RDPS_WindU_IsbL-0050_RLatLon0.09_PT003H.grib2 2026-05-02 20:40 360K
20260502T18Z_MSC_RDPS_WindU_IsbL-0100_RLatLon0.09_PT003H.grib2 2026-05-02 20:40 415K
20260502T18Z_MSC_RDPS_WindU_IsbL-0150_RLatLon0.09_PT003H.grib2 2026-05-02 20:40 391K
20260502T18Z_MSC_RDPS_WindU_IsbL-0175_RLatLon0.09_PT003H.grib2 2026-05-02 20:40 411K
20260502T18Z_MSC_RDPS_WindU_IsbL-0200_RLatLon0.09_PT003H.grib2 2026-05-02 20:40 332K
20260502T18Z_MSC_RDPS_WindU_IsbL-0225_RLatLon0.09_PT003H.grib2 2026-05-02 20:40 337K
20260502T18Z_MSC_RDPS_WindU_IsbL-0250_RLatLon0.09_PT003H.grib2 2026-05-02 20:40 338K
20260502T18Z_MSC_RDPS_WindU_IsbL-0275_RLatLon0.09_PT003H.grib2 2026-05-02 20:40 351K
20260502T18Z_MSC_RDPS_WindU_IsbL-0300_RLatLon0.09_PT003H.grib2 2026-05-02 20:40 349K
20260502T18Z_MSC_RDPS_WindU_IsbL-0350_RLatLon0.09_PT003H.grib2 2026-05-02 20:40 358K
20260502T18Z_MSC_RDPS_WindU_IsbL-0400_RLatLon0.09_PT003H.grib2 2026-05-02 20:40 462K
20260502T18Z_MSC_RDPS_WindU_IsbL-0450_RLatLon0.09_PT003H.grib2 2026-05-02 20:40 462K
20260502T18Z_MSC_RDPS_WindU_IsbL-0500_RLatLon0.09_PT003H.grib2 2026-05-02 20:40 464K
20260502T18Z_MSC_RDPS_WindU_IsbL-0550_RLatLon0.09_PT003H.grib2 2026-05-02 20:40 470K
20260502T18Z_MSC_RDPS_WindU_IsbL-0600_RLatLon0.09_PT003H.grib2 2026-05-02 20:40 482K
20260502T18Z_MSC_RDPS_WindU_IsbL-0650_RLatLon0.09_PT003H.grib2 2026-05-02 20:40 484K
20260502T18Z_MSC_RDPS_WindU_IsbL-0700_RLatLon0.09_PT003H.grib2 2026-05-02 20:40 510K
20260502T18Z_MSC_RDPS_WindU_IsbL-0750_RLatLon0.09_PT003H.grib2 2026-05-02 20:40 539K
20260502T18Z_MSC_RDPS_WindU_IsbL-0800_RLatLon0.09_PT003H.grib2 2026-05-02 20:40 576K
20260502T18Z_MSC_RDPS_WindU_IsbL-0850_RLatLon0.09_PT003H.grib2 2026-05-02 20:40 621K
20260502T18Z_MSC_RDPS_WindU_IsbL-0875_RLatLon0.09_PT003H.grib2 2026-05-02 20:40 636K
20260502T18Z_MSC_RDPS_WindU_IsbL-0900_RLatLon0.09_PT003H.grib2 2026-05-02 20:40 645K
20260502T18Z_MSC_RDPS_WindU_IsbL-0925_RLatLon0.09_PT003H.grib2 2026-05-02 20:40 653K
20260502T18Z_MSC_RDPS_WindU_IsbL-0950_RLatLon0.09_PT003H.grib2 2026-05-02 20:40 650K
20260502T18Z_MSC_RDPS_WindU_IsbL-0970_RLatLon0.09_PT003H.grib2 2026-05-02 20:40 791K
20260502T18Z_MSC_RDPS_WindU_IsbL-0985_RLatLon0.09_PT003H.grib2 2026-05-02 20:40 786K
20260502T18Z_MSC_RDPS_WindU_IsbL-1000_RLatLon0.09_PT003H.grib2 2026-05-02 20:40 780K
20260502T18Z_MSC_RDPS_WindU_IsbL-1015_RLatLon0.09_PT003H.grib2 2026-05-02 20:40 818K
20260502T18Z_MSC_RDPS_WindV_AGL-10m_RLatLon0.09_PT003H.grib2 2026-05-02 20:40 427K
20260502T18Z_MSC_RDPS_WindV_AGL-120m_RLatLon0.09_PT003H.grib2 2026-05-02 20:40 409K
20260502T18Z_MSC_RDPS_WindV_AGL-40m_RLatLon0.09_PT003H.grib2 2026-05-02 20:40 526K
20260502T18Z_MSC_RDPS_WindV_AGL-80m_RLatLon0.09_PT003H.grib2 2026-05-02 20:40 524K
20260502T18Z_MSC_RDPS_WindV_IsbL-0001_RLatLon0.09_PT003H.grib2 2026-05-02 20:40 287K
20260502T18Z_MSC_RDPS_WindV_IsbL-0005_RLatLon0.09_PT003H.grib2 2026-05-02 20:40 273K
20260502T18Z_MSC_RDPS_WindV_IsbL-0010_RLatLon0.09_PT003H.grib2 2026-05-02 20:40 366K
20260502T18Z_MSC_RDPS_WindV_IsbL-0020_RLatLon0.09_PT003H.grib2 2026-05-02 20:40 295K
20260502T18Z_MSC_RDPS_WindV_IsbL-0030_RLatLon0.09_PT003H.grib2 2026-05-02 20:40 298K
20260502T18Z_MSC_RDPS_WindV_IsbL-0050_RLatLon0.09_PT003H.grib2 2026-05-02 20:40 323K
20260502T18Z_MSC_RDPS_WindV_IsbL-0100_RLatLon0.09_PT003H.grib2 2026-05-02 20:40 412K
20260502T18Z_MSC_RDPS_WindV_IsbL-0150_RLatLon0.09_PT003H.grib2 2026-05-02 20:40 389K
20260502T18Z_MSC_RDPS_WindV_IsbL-0175_RLatLon0.09_PT003H.grib2 2026-05-02 20:40 410K
20260502T18Z_MSC_RDPS_WindV_IsbL-0200_RLatLon0.09_PT003H.grib2 2026-05-02 20:40 331K
20260502T18Z_MSC_RDPS_WindV_IsbL-0225_RLatLon0.09_PT003H.grib2 2026-05-02 20:40 336K
20260502T18Z_MSC_RDPS_WindV_IsbL-0250_RLatLon0.09_PT003H.grib2 2026-05-02 20:40 337K
20260502T18Z_MSC_RDPS_WindV_IsbL-0275_RLatLon0.09_PT003H.grib2 2026-05-02 20:40 351K
20260502T18Z_MSC_RDPS_WindV_IsbL-0300_RLatLon0.09_PT003H.grib2 2026-05-02 20:40 374K
20260502T18Z_MSC_RDPS_WindV_IsbL-0350_RLatLon0.09_PT003H.grib2 2026-05-02 20:40 356K
20260502T18Z_MSC_RDPS_WindV_IsbL-0400_RLatLon0.09_PT003H.grib2 2026-05-02 20:40 358K
20260502T18Z_MSC_RDPS_WindV_IsbL-0450_RLatLon0.09_PT003H.grib2 2026-05-02 20:40 460K
20260502T18Z_MSC_RDPS_WindV_IsbL-0500_RLatLon0.09_PT003H.grib2 2026-05-02 20:40 462K
20260502T18Z_MSC_RDPS_WindV_IsbL-0550_RLatLon0.09_PT003H.grib2 2026-05-02 20:40 468K
20260502T18Z_MSC_RDPS_WindV_IsbL-0600_RLatLon0.09_PT003H.grib2 2026-05-02 20:40 462K
20260502T18Z_MSC_RDPS_WindV_IsbL-0650_RLatLon0.09_PT003H.grib2 2026-05-02 20:40 481K
20260502T18Z_MSC_RDPS_WindV_IsbL-0700_RLatLon0.09_PT003H.grib2 2026-05-02 20:40 508K
20260502T18Z_MSC_RDPS_WindV_IsbL-0750_RLatLon0.09_PT003H.grib2 2026-05-02 20:40 535K
20260502T18Z_MSC_RDPS_WindV_IsbL-0800_RLatLon0.09_PT003H.grib2 2026-05-02 20:40 572K
20260502T18Z_MSC_RDPS_WindV_IsbL-0850_RLatLon0.09_PT003H.grib2 2026-05-02 20:40 615K
20260502T18Z_MSC_RDPS_WindV_IsbL-0875_RLatLon0.09_PT003H.grib2 2026-05-02 20:40 632K
20260502T18Z_MSC_RDPS_WindV_IsbL-0900_RLatLon0.09_PT003H.grib2 2026-05-02 20:40 640K
20260502T18Z_MSC_RDPS_WindV_IsbL-0925_RLatLon0.09_PT003H.grib2 2026-05-02 20:40 646K
20260502T18Z_MSC_RDPS_WindV_IsbL-0950_RLatLon0.09_PT003H.grib2 2026-05-02 20:40 643K
20260502T18Z_MSC_RDPS_WindV_IsbL-0970_RLatLon0.09_PT003H.grib2 2026-05-02 20:40 643K
20260502T18Z_MSC_RDPS_WindV_IsbL-0985_RLatLon0.09_PT003H.grib2 2026-05-02 20:40 779K
20260502T18Z_MSC_RDPS_WindV_IsbL-1000_RLatLon0.09_PT003H.grib2 2026-05-02 20:40 774K
20260502T18Z_MSC_RDPS_WindV_IsbL-1015_RLatLon0.09_PT003H.grib2 2026-05-02 20:40 767K